This is the latest recevied weather packets stored in our database for station/object N0QV. If no packets are shown the sender has not sent any weather packets the latest 10 day(s).
| Time | Temp. | Humidity | Pressure | Rain* | Wind** | Luminosity | Snow |
|---|---|---|---|---|---|---|---|
| 1788477566 | 29.44° C | 70% | 1008.7 hPa | 0 mm | - | 35 W/m² | - |
| 1788477261 | 30° C | 68% | 1008.4 hPa | 0 mm | - | 43 W/m² | - |
| 1788476956 | 30° C | 68% | 1008.7 hPa | 0 mm | - | 58 W/m² | - |
| 1788476652 | 30.56° C | 67% | 1008.9 hPa | 0 mm | - | 64 W/m² | - |
| 1788476348 | 30.56° C | 67% | 1008.8 hPa | 0 mm | - | 74 W/m² | - |
| 1788476043 | 30° C | 67% | 1008.9 hPa | 0 mm | - | 121 W/m² | - |
| 1788475739 | 30° C | 68% | 1008.4 hPa | 0 mm | - | 86 W/m² | - |
| 1788475435 | 30° C | 69% | 1008.5 hPa | 0 mm | - | 73 W/m² | - |
| 1788475131 | 30° C | 68% | 1008.1 hPa | 0 mm | - | 61 W/m² | - |
| 1788474829 | 30.56° C | 66% | 1008 hPa | 0 mm | - | 68 W/m² | - |
| 1788474524 | 30.56° C | 66% | 1008 hPa | 0 mm | - | 115 W/m² | - |
| 1788474224 | 30.56° C | 66% | 1007.6 hPa | 0 mm | - | 284 W/m² | - |
| 1788473919 | 31.11° C | 63% | 1007.6 hPa | 0 mm | - | 247 W/m² | - |
| 1788473618 | 31.67° C | 64% | 1007.5 hPa | 0 mm | - | 296 W/m² | - |
| 1788473316 | 31.11° C | 63% | 1007.5 hPa | 0 mm | - | 286 W/m² | - |
| 1788473010 | 31.67° C | 62% | 1007.6 hPa | 0 mm | - | 319 W/m² | - |
| 1788472709 | 31.67° C | 62% | 1007.9 hPa | 0 mm | - | 314 W/m² | - |
| 1788472405 | 31.67° C | 62% | 1008.1 hPa | 0 mm | - | 341 W/m² | - |
| 1788472103 | 31.67° C | 62% | 1008 hPa | 0 mm | - | 361 W/m² | - |
| 1788471813 | 31.67° C | 63% | 1008.1 hPa | 0 mm | - | 272 W/m² | - |
| 1788471494 | 31.67° C | 64% | 1008 hPa | 0 mm | - | 391 W/m² | - |
| 1788471189 | 31.67° C | 62% | 1008.2 hPa | 0 mm | - | 374 W/m² | - |
| 1788470885 | 31.67° C | 65% | 1008.4 hPa | 0 mm | - | 386 W/m² | - |
| 1788470582 | 31.11° C | 64% | 1008.4 hPa | 0 mm | - | 395 W/m² | - |
| 1788470280 | 31.11° C | 65% | 1008.4 hPa | 0 mm | - | 346 W/m² | - |
* Rain latest hour (hover to see other rain measurements)
** Current wind speed in m/s (hover to see current wind gust speed)